Location: B�hl
(48.6968°N, 8.1352°E)
Time: 11:16:18
(UTC+00:00)

H-2A R/B - Pass Details

Date: 08 March 2021
Orbit: 732 x 837 km, 98.2° (Epoch: 10 April)

Event Time Altitude Azimuth Distance (km) Brightness Sun altitude
Rises 18:45:16 0° 187° (S) 3,375 5.3 -14.5°
Reaches altitude 10° 18:47:47 10° 196° (SSW) 2,446 4.7 -14.9°
Maximum altitude 18:52:51 39° 264° (W) 1,246 3.7 -15.7°
Drops below altitude 10° 18:57:54 10° 332° (NNW) 2,442 5.2 -16.5°
Sets 19:00:25 0° 340° (NNW) 3,369 5.8 -16.9°
